| time (UTC) | temp F | wind direction | speed knots | gust knots | rain 1hr in | rain 24hr in | rain mn in | humidity % | barometer mb |
| 20260507231305 | 59 | 24 | 5.2 | 6.1 | 0.00 | 0.00 | 0.00 | 37 | 1011.5 |
| 20260507230801 | 60 | 349 | 3.5 | 4.3 | 0.00 | 0.00 | 0.00 | 36 | 1011.3 |
| 20260507230258 | 59 | 337 | 1.7 | 2.6 | 0.00 | 0.00 | 0.00 | 37 | 1011.3 |
| 20260507225758 | 58 | 329 | 4.3 | 7.0 | 0.00 | 0.00 | 0.00 | 38 | 1011.4 |
| 20260507225254 | 59 | 302 | 3.5 | 4.3 | 0.00 | 0.00 | 0.00 | 37 | 1011.4 |
| 20260507224750 | 59 | 310 | 4.3 | 6.1 | 0.00 | 0.00 | 0.00 | 35 | 1011.1 |
| 20260507224247 | 59 | 327 | 6.1 | 8.7 | 0.00 | 0.00 | 0.00 | 35 | 1011.2 |
| 20260507223744 | 61 | 18 | 4.3 | 6.1 | 0.00 | 0.00 | 0.00 | 35 | 1011.3 |
| 20260507223240 | 60 | 3 | 7.0 | 11.3 | 0.00 | 0.00 | 0.00 | 35 | 1011.1 |
| 20260507222737 | 60 | 345 | 1.7 | 1.7 | 0.00 | 0.00 | 0.00 | 36 | 1011.1 |
| 20260507222233 | 58 | 339 | 4.3 | 6.1 | 0.00 | 0.00 | 0.00 | 37 | 1010.9 |
| 20260507221730 | 58 | 354 | 2.6 | 2.6 | 0.00 | 0.00 | 0.00 | 37 | 1010.9 |
| 20260507221226 | 58 | 323 | 2.6 | 4.3 | 0.00 | 0.00 | 0.00 | 36 | 1010.9 |
| 20260507220723 | 60 | 343 | 3.5 | 5.2 | 0.00 | 0.00 | 0.00 | 37 | 1010.8 |
| 20260507220221 | 59 | 311 | 2.6 | 2.6 | 0.00 | 0.00 | 0.00 | 37 | 1010.9 |
| 20260507215717 | 60 | 15 | 3.5 | 4.3 | 0.00 | 0.00 | 0.00 | 37 | 1010.6 |
| 20260507215215 | 60 | 19 | 3.5 | 7.0 | 0.00 | 0.00 | 0.00 | 38 | 1010.7 |
| 20260507214712 | 61 | 297 | 4.3 | 5.2 | 0.00 | 0.00 | 0.00 | 36 | 1010.8 |
| 20260507214209 | 60 | 338 | 5.2 | 5.2 | 0.00 | 0.00 | 0.00 | 37 | 1010.8 |
| 20260507213704 | 59 | 327 | 4.3 | 7.8 | 0.00 | 0.00 | 0.00 | 37 | 1010.6 |
| 20260507213201 | 60 | 323 | 4.3 | 6.1 | 0.00 | 0.00 | 0.00 | 37 | 1010.6 |
| 20260507212657 | 60 | 335 | 4.3 | 6.1 | 0.00 | 0.00 | 0.00 | 37 | 1010.9 |
| 20260507212154 | 60 | 52 | 4.3 | 7.0 | 0.00 | 0.00 | 0.00 | 36 | 1010.7 |
| 20260507211651 | 60 | 317 | 3.5 | 6.1 | 0.00 | 0.00 | 0.00 | 36 | 1010.9 |
| 20260507211146 | 60 | 13 | 1.7 | 1.7 | 0.00 | 0.00 | 0.00 | 38 | 1010.5 |
| 20260507210644 | 60 | 321 | 4.3 | 6.1 | 0.00 | 0.00 | 0.00 | 36 | 1010.4 |
| 20260507210141 | 61 | 315 | 4.3 | 5.2 | 0.00 | 0.00 | 0.00 | 36 | 1010.3 |
| 20260507205637 | 61 | 306 | 4.3 | 5.2 | 0.00 | 0.00 | 0.00 | 35 | 1010.4 |
| 20260507205134 | 60 | 305 | 1.7 | 1.7 | 0.00 | 0.00 | 0.00 | 35 | 1010.6 |
| 20260507204630 | 60 | 359 | 0.9 | 1.7 | 0.00 | 0.00 | 0.00 | 35 | 1010.5 |
| 20260507204128 | 60 | 310 | 0.9 | 1.7 | 0.00 | 0.00 | 0.00 | 37 | 1010.5 |
| 20260507203626 | 60 | 311 | 1.7 | 2.6 | 0.00 | 0.00 | 0.00 | 36 | 1010.4 |
| 20260507203123 | 61 | 262 | 3.5 | 4.3 | 0.00 | 0.00 | 0.00 | 35 | 1010.5 |
| 20260507202619 | 63 | 258 | 5.2 | 9.6 | 0.00 | 0.00 | 0.00 | 34 | 1010.4 |
| 20260507202116 | 63 | 356 | 0.9 | 1.7 | 0.00 | 0.00 | 0.00 | 35 | 1010.5 |
| 20260507201616 | 63 | 278 | 4.3 | 5.2 | 0.00 | 0.00 | 0.00 | 34 | 1010.3 |
| 20260507201113 | 61 | 231 | 2.6 | 4.3 | 0.00 | 0.00 | 0.00 | 36 | 1010.5 |
| 20260507200608 | 61 | 317 | 6.1 | 7.8 | 0.00 | 0.00 | 0.00 | 35 | 1010.8 |
| 20260507200105 | 62 | 333 | 6.1 | 7.0 | 0.00 | 0.00 | 0.00 | 35 | 1010.6 |
| 20260507195602 | 60 | 13 | 2.6 | 4.3 | 0.00 | 0.00 | 0.00 | 38 | 1010.8 |
| 20260507195059 | 61 | 354 | 0.9 | 1.7 | 0.00 | 0.00 | 0.00 | 39 | 1010.6 |
| 20260507194555 | 60 | 337 | 3.5 | 5.2 | 0.00 | 0.00 | 0.00 | 38 | 1010.7 |
| 20260507194051 | 60 | 0 | 1.7 | 2.6 | 0.00 | 0.00 | 0.00 | 39 | 1010.9 |
| 20260507193549 | 60 | 351 | 1.7 | 2.6 | 0.00 | 0.00 | 0.00 | 38 | 1010.9 |
| 20260507193046 | 62 | 7 | 4.3 | 5.2 | 0.00 | 0.00 | 0.00 | 38 | 1010.8 |
| 20260507192542 | 60 | 324 | 1.7 | 2.6 | 0.00 | 0.00 | 0.00 | 39 | 1010.8 |
| 20260507192039 | 61 | 356 | 0.9 | 1.7 | 0.00 | 0.00 | 0.00 | 39 | 1010.8 |
| 20260507191535 | 62 | 320 | 1.7 | 2.6 | 0.00 | 0.00 | 0.00 | 38 | 1010.9 |
| 20260507191032 | 62 | 327 | 2.6 | 2.6 | 0.00 | 0.00 | 0.00 | 40 | 1010.9 |
| 20260507190529 | 59 | 314 | 1.7 | 1.7 | 0.00 | 0.00 | 0.00 | 41 | 1011.2 |
| 20260507190028 | 59 | 345 | 2.6 | 2.6 | 0.00 | 0.00 | 0.00 | 42 | 1011.2 |
| 20260507185526 | 60 | 42 | 2.6 | 4.3 | 0.00 | 0.00 | 0.00 | 40 | 1011.0 |
| 20260507185022 | 61 | 341 | 2.6 | 4.3 | 0.00 | 0.00 | 0.00 | 41 | 1011.0 |
| 20260507184520 | 59 | 304 | 3.5 | 4.3 | 0.00 | 0.00 | 0.00 | 42 | 1011.1 |
| 20260507184018 | 60 | 342 | 0.9 | 1.7 | 0.00 | 0.00 | 0.00 | 42 | 1011.1 |
| 20260507183513 | 60 | 336 | 0.9 | 1.7 | 0.00 | 0.00 | 0.00 | 39 | 1011.3 |
| 20260507183011 | 60 | 320 | 3.5 | 5.2 | 0.00 | 0.00 | 0.00 | 40 | 1011.1 |
| 20260507182507 | 62 | 319 | 1.7 | 2.6 | 0.00 | 0.00 | 0.00 | 40 | 1011.2 |
| 20260507182003 | 64 | 22 | 4.3 | 6.1 | 0.00 | 0.00 | 0.00 | 38 | 1011.0 |
| 20260507181500 | 62 | 313 | 2.6 | 2.6 | 0.00 | 0.00 | 0.00 | 38 | 1011.5 |
| 20260507180956 | 60 | 315 | 2.6 | 4.3 | 0.00 | 0.00 | 0.00 | 40 | 1011.5 |
| 20260507180452 | 60 | 283 | 2.6 | 4.3 | 0.00 | 0.00 | 0.00 | 42 | 1011.4 |
| 20260507175948 | 61 | 314 | 0.0 | 0.9 | 0.00 | 0.00 | 0.00 | 42 | 1011.3 |
| 20260507175446 | 61 | 284 | 2.6 | 4.3 | 0.00 | 0.00 | 0.00 | 40 | 1011.5 |
| 20260507174943 | 60 | 245 | 3.5 | 5.2 | 0.00 | 0.00 | 0.00 | 41 | 1011.7 |
| 20260507174440 | 61 | 270 | 3.5 | 5.2 | 0.00 | 0.00 | 0.00 | 41 | 1011.6 |
| 20260507173937 | 59 | 193 | 3.5 | 5.2 | 0.00 | 0.00 | 0.00 | 40 | 1011.8 |
| 20260507173434 | 59 | 335 | 2.6 | 2.6 | 0.00 | 0.00 | 0.00 | 39 | 1011.7 |
| 20260507172931 | 58 | 320 | 0.9 | 0.9 | 0.00 | 0.00 | 0.00 | 41 | 1011.8 |
| 20260507172428 | 59 | 327 | 3.5 | 5.2 | 0.00 | 0.00 | 0.00 | 41 | 1011.7 |
| 20260507171924 | 59 | 313 | 3.5 | 7.8 | 0.00 | 0.00 | 0.00 | 41 | 1011.8 |
| 20260507171420 | 60 | 303 | 1.7 | 1.7 | 0.00 | 0.00 | 0.00 | 40 | 1012.1 |
| 20260507170918 | 62 | 350 | 0.0 | 0.0 | 0.00 | 0.00 | 0.00 | 39 | 1012.0 |
| 20260507170414 | 62 | 315 | 0.9 | 1.7 | 0.00 | 0.00 | 0.00 | 37 | 1012.1 |
| 20260507165910 | 60 | 286 | 2.6 | 4.3 | 0.00 | 0.00 | 0.00 | 40 | 1012.1 |
| 20260507165406 | 59 | 306 | 2.6 | 2.6 | 0.00 | 0.00 | 0.00 | 41 | 1012.2 |
| 20260507164902 | 59 | 288 | 2.6 | 2.6 | 0.00 | 0.00 | 0.00 | 42 | 1012.0 |
| 20260507164400 | 61 | 276 | 4.3 | 5.2 | 0.00 | 0.00 | 0.00 | 40 | 1012.3 |
| 20260507163857 | 61 | 316 | 0.9 | 0.9 | 0.00 | 0.00 | 0.00 | 40 | 1012.3 |
| 20260507163354 | 60 | 32 | 1.7 | 1.7 | 0.00 | 0.00 | 0.00 | 40 | 1012.3 |
| 20260507162851 | 60 | 323 | 2.6 | 4.3 | 0.00 | 0.00 | 0.00 | 40 | 1012.2 |
| 20260507162346 | 60 | 29 | 3.5 | 5.2 | 0.00 | 0.00 | 0.00 | 40 | 1012.4 |
| 20260507161843 | 59 | 277 | 5.2 | 7.8 | 0.00 | 0.00 | 0.00 | 40 | 1012.4 |
| 20260507161340 | 60 | 315 | 0.9 | 0.9 | 0.00 | 0.00 | 0.00 | 41 | 1012.4 |
| 20260507160837 | 58 | 269 | 4.3 | 6.1 | 0.00 | 0.00 | 0.00 | 43 | 1012.6 |
| 20260507160332 | 58 | 327 | 2.6 | 4.3 | 0.00 | 0.00 | 0.00 | 42 | 1012.5 |
| 20260507155829 | 59 | 222 | 2.6 | 4.3 | 0.00 | 0.00 | 0.00 | 43 | 1012.6 |
| 20260507155325 | 56 | 295 | 0.9 | 1.7 | 0.00 | 0.00 | 0.00 | 44 | 1012.9 |
| 20260507154821 | 57 | 30 | 4.3 | 7.0 | 0.00 | 0.00 | 0.00 | 45 | 1013.0 |
| 20260507154319 | 58 | 335 | 0.9 | 1.7 | 0.00 | 0.00 | 0.00 | 43 | 1013.1 |
| 20260507153815 | 59 | 230 | 1.7 | 2.6 | 0.00 | 0.00 | 0.00 | 42 | 1013.0 |
| 20260507153312 | 58 | 261 | 6.1 | 9.6 | 0.00 | 0.00 | 0.00 | 40 | 1013.3 |
| 20260507152808 | 57 | 25 | 1.7 | 1.7 | 0.00 | 0.00 | 0.00 | 44 | 1013.0 |
| 20260507152306 | 57 | 22 | 4.3 | 7.8 | 0.00 | 0.00 | 0.00 | 45 | 1013.2 |
| 20260507151800 | 58 | 319 | 0.9 | 0.9 | 0.00 | 0.00 | 0.00 | 45 | 1013.3 |
| 20260507151257 | 58 | 256 | 4.3 | 5.2 | 0.00 | 0.00 | 0.00 | 44 | 1013.3 |
| 20260507150755 | 56 | 221 | 2.6 | 2.6 | 0.00 | 0.00 | 0.00 | 47 | 1013.3 |
| 20260507150251 | 56 | 17 | 3.5 | 5.2 | 0.00 | 0.00 | 0.00 | 47 | 1013.3 |
| 20260507145747 | 56 | 326 | 0.9 | 0.9 | 0.00 | 0.00 | 0.00 | 45 | 1013.5 |
| 20260507145243 | 56 | 314 | 1.7 | 2.6 | 0.00 | 0.00 | 0.00 | 47 | 1013.7 |
| 20260507144741 | 56 | 1 | 1.7 | 2.6 | 0.00 | 0.00 | 0.00 | 50 | 1013.7 |
| 20260507144238 | 57 | 0 | 0.9 | 0.9 | 0.00 | 0.00 | 0.00 | 47 | 1013.5 |
| 20260507143735 | 57 | 328 | 0.9 | 0.9 | 0.00 | 0.00 | 0.00 | 46 | 1013.8 |
| 20260507143232 | 56 | 283 | 1.7 | 5.2 | 0.00 | 0.00 | 0.00 | 49 | 1013.9 |
| 20260507142728 | 55 | 316 | 1.7 | 1.7 | 0.00 | 0.00 | 0.00 | 52 | 1013.7 |
| 20260507142224 | 56 | 301 | 1.7 | 2.6 | 0.00 | 0.00 | 0.00 | 55 | 1013.8 |
| 20260507141721 | 55 | 358 | 0.9 | 0.9 | 0.00 | 0.00 | 0.00 | 56 | 1014.0 |
| 20260507141218 | 55 | 335 | 1.7 | 2.6 | 0.00 | 0.00 | 0.00 | 54 | 1013.9 |
| 20260507140714 | 55 | 331 | 1.7 | 1.7 | 0.00 | 0.00 | 0.00 | 57 | 1014.1 |
| 20260507140212 | 54 | 336 | 2.6 | 2.6 | 0.00 | 0.00 | 0.00 | 56 | 1014.2 |
| 20260507135708 | 54 | 307 | 1.7 | 2.6 | 0.00 | 0.00 | 0.00 | 60 | 1014.3 |
| 20260507135206 | 53 | 331 | 1.7 | 1.7 | 0.00 | 0.00 | 0.00 | 60 | 1014.4 |
| 20260507134702 | 53 | 312 | 2.6 | 2.6 | 0.00 | 0.00 | 0.00 | 61 | 1014.4 |
| 20260507134158 | 52 | 326 | 2.6 | 4.3 | 0.00 | 0.00 | 0.00 | 59 | 1014.3 |
| 20260507133654 | 52 | 331 | 2.6 | 2.6 | 0.00 | 0.00 | 0.00 | 64 | 1014.4 |
| 20260507133152 | 51 | 163 | 2.6 | 2.6 | 0.00 | 0.00 | 0.00 | 66 | 1014.5 |
| 20260507132649 | 50 | 215 | 1.7 | 4.3 | 0.00 | 0.00 | 0.00 | 67 | 1014.4 |
| 20260507132145 | 50 | 332 | 1.7 | 2.6 | 0.00 | 0.00 | 0.00 | 66 | 1014.6 |
| 20260507131643 | 51 | 358 | 1.7 | 2.6 | 0.00 | 0.00 | 0.00 | 64 | 1014.6 |
| 20260507131139 | 50 | 341 | 2.6 | 4.3 | 0.00 | 0.00 | 0.00 | 66 | 1014.3 |
| 20260507130636 | 50 | 323 | 0.9 | 0.9 | 0.00 | 0.00 | 0.00 | 70 | 1014.6 |
| 20260507130134 | 49 | 315 | 0.9 | 1.7 | 0.00 | 0.00 | 0.00 | 70 | 1014.5 |
| 20260507125633 | 48 | 337 | 0.9 | 0.9 | 0.00 | 0.00 | 0.00 | 77 | 1014.5 |
| 20260507125130 | 47 | 332 | 0.0 | 0.9 | 0.00 | 0.00 | 0.00 | 78 | 1014.7 |
| 20260507124626 | 47 | 210 | 1.7 | 2.6 | 0.00 | 0.00 | 0.00 | 79 | 1014.6 |
| 20260507124124 | 46 | 292 | 0.9 | 1.7 | 0.00 | 0.00 | 0.00 | 80 | 1014.6 |
| 20260507123622 | 46 | 350 | 0.9 | 0.9 | 0.00 | 0.00 | 0.00 | 80 | 1014.6 |
| 20260507123119 | 46 | 204 | 1.7 | 1.7 | 0.00 | 0.00 | 0.00 | 81 | 1014.8 |
| 20260507122613 | 46 | 6 | 0.0 | 0.9 | 0.00 | 0.00 | 0.00 | 82 | 1014.5 |
| 20260507122109 | 45 | 33 | 0.0 | 0.0 | 0.00 | 0.00 | 0.00 | 87 | 1014.7 |
| 20260507121606 | 44 | 21 | 0.0 | 0.0 | 0.00 | 0.00 | 0.00 | 93 | 1014.6 |
| 20260507121102 | 43 | 13 | 0.0 | 0.0 | 0.00 | 0.00 | 0.00 | 96 | 1014.7 |
| 20260507120558 | 42 | 10 | 0.0 | 0.0 | 0.00 | 0.00 | 0.00 | 97 | 1014.6 |
| 20260507120055 | 41 | 10 | 0.0 | 0.0 | 0.00 | 0.00 | 0.00 | 97 | 1014.7 |
| 20260507115551 | 41 | 10 | 0.0 | 0.0 | 0.00 | 0.00 | 0.00 | 98 | 1014.6 |
| 20260507115047 | 39 | 10 | 0.0 | 0.0 | 0.00 | 0.00 | 0.00 | 97 | 1014.7 |
| 20260507114543 | 39 | 10 | 0.0 | 0.0 | 0.00 | 0.00 | 0.00 | 97 | 1014.8 |
| 20260507114041 | 38 | 10 | 0.0 | 0.0 | 0.00 | 0.00 | 0.00 | 97 | 1014.5 |
| 20260507113537 | 38 | 10 | 0.0 | 0.0 | 0.00 | 0.00 | 0.00 | 97 | 1014.6 |
| 20260507113035 | 37 | 10 | 0.0 | 0.0 | 0.00 | 0.00 | 0.00 | 98 | 1014.5 |
| 20260507112533 | 36 | 10 | 0.0 | 0.0 | 0.00 | 0.00 | 0.00 | 97 | 1014.5 |
| 20260507112029 | 36 | 10 | 0.0 | 0.0 | 0.00 | 0.00 | 0.00 | 97 | 1014.4 |
| 20260507111526 | 36 | 10 | 0.0 | 0.0 | 0.00 | 0.00 | 0.00 | 97 | 1014.3 |
| 20260507111022 | 35 | 10 | 0.0 | 0.0 | 0.00 | 0.00 | 0.00 | 97 | 1014.2 |
| 20260507110519 | 35 | 10 | 0.0 | 0.0 | 0.00 | 0.00 | 0.00 | 97 | 1014.2 |
| 20260507110015 | 35 | 10 | 0.0 | 0.0 | 0.00 | 0.00 | 0.00 | 97 | 1014.4 |
| 20260507105513 | 34 | 10 | 0.0 | 0.0 | 0.00 | 0.00 | 0.00 | 97 | 1014.2 |
| 20260507105003 | 34 | 10 | 0.0 | 0.0 | 0.00 | 0.00 | 0.00 | 97 | 1014.2 |
| 20260507104500 | 34 | 10 | 0.0 | 0.0 | 0.00 | 0.00 | 0.00 | 97 | 1014.1 |
| 20260507103956 | 34 | 10 | 0.0 | 0.0 | 0.00 | 0.00 | 0.00 | 97 | 1013.9 |
| 20260507103453 | 35 | 10 | 0.0 | 0.0 | 0.00 | 0.00 | 0.00 | 97 | 1014.1 |
| 20260507102949 | 35 | 10 | 0.0 | 0.0 | 0.00 | 0.00 | 0.00 | 97 | 1013.9 |
| 20260507102446 | 35 | 10 | 0.0 | 0.0 | 0.00 | 0.00 | 0.00 | 96 | 1014.1 |
| 20260507101942 | 35 | 10 | 0.0 | 0.0 | 0.00 | 0.00 | 0.00 | 96 | 1014.0 |
| 20260507101437 | 34 | 10 | 0.0 | 0.0 | 0.00 | 0.00 | 0.00 | 96 | 1013.9 |
| 20260507100934 | 35 | 10 | 0.0 | 0.0 | 0.00 | 0.00 | 0.00 | 96 | 1013.9 |
| 20260507100432 | 35 | 10 | 0.0 | 0.0 | 0.00 | 0.00 | 0.00 | 96 | 1014.1 |
| 20260507095930 | 35 | 10 | 0.0 | 0.0 | 0.00 | 0.00 | 0.00 | 96 | 1013.9 |
| 20260507095427 | 35 | 10 | 0.0 | 0.0 | 0.00 | 0.00 | 0.00 | 96 | 1014.0 |
| 20260507094924 | 35 | 10 | 0.0 | 0.0 | 0.00 | 0.00 | 0.00 | 96 | 1014.1 |
| 20260507094420 | 35 | 10 | 0.0 | 0.0 | 0.00 | 0.00 | 0.00 | 96 | 1013.9 |
| 20260507093917 | 36 | 10 | 0.0 | 0.0 | 0.00 | 0.00 | 0.00 | 95 | 1014.1 |
| 20260507093415 | 35 | 10 | 0.0 | 0.0 | 0.00 | 0.00 | 0.00 | 95 | 1014.0 |
| 20260507092913 | 36 | 10 | 0.0 | 0.0 | 0.00 | 0.00 | 0.00 | 95 | 1014.1 |
| 20260507092409 | 35 | 10 | 0.0 | 0.0 | 0.00 | 0.00 | 0.00 | 95 | 1014.2 |
| 20260507091906 | 35 | 10 | 0.0 | 0.0 | 0.00 | 0.00 | 0.00 | 95 | 1014.2 |
| 20260507091402 | 36 | 10 | 0.0 | 0.0 | 0.00 | 0.00 | 0.00 | 95 | 1014.2 |
| 20260507090858 | 36 | 10 | 0.0 | 0.0 | 0.00 | 0.00 | 0.00 | 95 | 1014.3 |
| 20260507090354 | 36 | 10 | 0.0 | 0.0 | 0.00 | 0.00 | 0.00 | 95 | 1014.2 |
| 20260507085852 | 37 | 10 | 0.0 | 0.0 | 0.00 | 0.00 | 0.00 | 95 | 1014.1 |
| 20260507085348 | 37 | 10 | 0.0 | 0.0 | 0.00 | 0.00 | 0.00 | 94 | 1014.0 |
| 20260507084845 | 37 | 10 | 0.0 | 0.0 | 0.00 | 0.00 | 0.00 | 94 | 1014.0 |
| 20260507084342 | 37 | 10 | 0.0 | 0.0 | 0.00 | 0.00 | 0.00 | 94 | 1014.0 |
| 20260507083839 | 37 | 10 | 0.0 | 0.0 | 0.00 | 0.00 | 0.00 | 94 | 1014.0 |
| 20260507083336 | 37 | 10 | 0.0 | 0.0 | 0.00 | 0.00 | 0.00 | 94 | 1014.0 |
| 20260507082832 | 37 | 10 | 0.0 | 0.0 | 0.00 | 0.00 | 0.00 | 94 | 1014.1 |
| 20260507082327 | 37 | 10 | 0.0 | 0.0 | 0.00 | 0.00 | 0.00 | 94 | 1013.9 |
| 20260507081825 | 38 | 10 | 0.0 | 0.0 | 0.00 | 0.00 | 0.00 | 93 | 1013.8 |
| 20260507081321 | 38 | 10 | 0.0 | 0.0 | 0.00 | 0.00 | 0.00 | 93 | 1014.0 |
| 20260507080817 | 38 | 10 | 0.0 | 0.0 | 0.00 | 0.00 | 0.00 | 93 | 1014.2 |
| 20260507080314 | 38 | 10 | 0.0 | 0.0 | 0.00 | 0.00 | 0.00 | 93 | 1014.0 |
| 20260507075809 | 39 | 10 | 0.0 | 0.0 | 0.00 | 0.00 | 0.00 | 93 | 1014.2 |
| 20260507075307 | 39 | 10 | 0.0 | 0.0 | 0.00 | 0.00 | 0.00 | 93 | 1014.0 |
| 20260507074802 | 39 | 10 | 0.0 | 0.9 | 0.00 | 0.00 | 0.00 | 93 | 1014.2 |
| 20260507074300 | 39 | 9 | 0.0 | 0.0 | 0.00 | 0.00 | 0.00 | 92 | 1014.0 |
| 20260507073757 | 39 | 10 | 0.0 | 0.0 | 0.00 | 0.00 | 0.00 | 92 | 1014.0 |
| 20260507073253 | 39 | 9 | 0.0 | 0.0 | 0.00 | 0.00 | 0.00 | 92 | 1014.1 |
| 20260507072751 | 39 | 9 | 0.0 | 0.0 | 0.00 | 0.00 | 0.00 | 92 | 1014.0 |
| 20260507072248 | 40 | 9 | 0.0 | 0.0 | 0.00 | 0.00 | 0.00 | 91 | 1014.1 |
| 20260507071746 | 40 | 9 | 0.0 | 0.0 | 0.00 | 0.00 | 0.00 | 91 | 1014.2 |
| 20260507071242 | 40 | 9 | 0.0 | 0.0 | 0.00 | 0.00 | 0.00 | 90 | 1014.1 |
| 20260507070739 | 40 | 9 | 0.0 | 0.0 | 0.00 | 0.00 | 0.00 | 90 | 1014.3 |
| 20260507070236 | 40 | 9 | 0.0 | 0.0 | 0.00 | 0.00 | 0.00 | 89 | 1014.3 |
| 20260507065732 | 41 | 9 | 0.0 | 0.0 | 0.00 | 0.00 | 0.00 | 89 | 1014.2 |
| 20260507065229 | 41 | 9 | 0.0 | 0.0 | 0.00 | 0.00 | 0.00 | 88 | 1014.2 |
| 20260507064726 | 42 | 9 | 0.0 | 0.0 | 0.00 | 0.00 | 0.00 | 87 | 1014.2 |
| 20260507064220 | 42 | 9 | 0.0 | 0.0 | 0.00 | 0.00 | 0.00 | 85 | 1014.2 |
| 20260507063716 | 42 | 9 | 0.0 | 0.0 | 0.00 | 0.00 | 0.00 | 85 | 1014.1 |
| 20260507063213 | 43 | 9 | 0.0 | 0.0 | 0.00 | 0.00 | 0.00 | 84 | 1014.2 |
| 20260507062710 | 43 | 9 | 0.0 | 0.0 | 0.00 | 0.00 | 0.00 | 83 | 1014.3 |
| 20260507062208 | 44 | 9 | 0.0 | 0.0 | 0.00 | 0.00 | 0.00 | 82 | 1014.0 |
| 20260507061706 | 44 | 9 | 0.0 | 0.0 | 0.00 | 0.00 | 0.00 | 80 | 1014.1 |
| 20260507061203 | 45 | 9 | 0.0 | 0.0 | 0.00 | 0.00 | 0.00 | 80 | 1014.2 |
| 20260507060701 | 45 | 9 | 0.0 | 0.0 | 0.00 | 0.00 | 0.00 | 78 | 1014.1 |
| 20260507060157 | 46 | 9 | 0.0 | 0.0 | 0.00 | 0.00 | 0.00 | 75 | 1014.1 |
| 20260507055654 | 46 | 9 | 0.0 | 0.0 | 0.00 | 0.00 | 0.00 | 74 | 1014.2 |
| 20260507055150 | 46 | 9 | 0.0 | 0.0 | 0.00 | 0.00 | 0.00 | 74 | 1014.5 |
| 20260507054646 | 46 | 9 | 0.0 | 0.0 | 0.00 | 0.00 | 0.00 | 72 | 1014.4 |
| 20260507054143 | 46 | 9 | 0.0 | 0.0 | 0.00 | 0.00 | 0.00 | 70 | 1014.8 |
| 20260507053641 | 46 | 9 | 0.0 | 0.0 | 0.00 | 0.00 | 0.00 | 73 | 1014.6 |
| 20260507053138 | 46 | 9 | 0.0 | 0.0 | 0.00 | 0.00 | 0.00 | 74 | 1014.7 |
| 20260507052636 | 47 | 9 | 0.0 | 0.0 | 0.00 | 0.00 | 0.00 | 76 | 1015.1 |
| 20260507052127 | 46 | 10 | 0.0 | 0.0 | 0.00 | 0.00 | 0.00 | 75 | 1015.0 |
| 20260507051625 | 46 | 356 | 0.9 | 1.7 | 0.00 | 0.00 | 0.00 | 76 | 1015.0 |
| 20260507051121 | 46 | 14 | 0.0 | 0.0 | 0.00 | 0.00 | 0.00 | 79 | 1014.9 |
| 20260507050618 | 46 | 14 | 0.0 | 0.0 | 0.00 | 0.00 | 0.00 | 79 | 1014.8 |
| 20260507050115 | 47 | 5 | 0.9 | 0.9 | 0.00 | 0.00 | 0.00 | 81 | 1014.7 |
| 20260507045611 | 47 | 1 | 0.0 | 0.9 | 0.00 | 0.00 | 0.00 | 79 | 1014.8 |
| 20260507045109 | 47 | 14 | 0.9 | 0.9 | 0.00 | 0.00 | 0.00 | 77 | 1014.7 |
| 20260507044605 | 47 | 15 | 0.0 | 0.9 | 0.00 | 0.00 | 0.00 | 78 | 1014.7 |
| 20260507044102 | 47 | 14 | 0.9 | 0.9 | 0.00 | 0.00 | 0.00 | 79 | 1014.8 |
| 20260507043558 | 47 | 14 | 0.0 | 0.0 | 0.00 | 0.00 | 0.00 | 80 | 1014.8 |
| 20260507043055 | 47 | 14 | 0.0 | 0.9 | 0.00 | 0.00 | 0.00 | 80 | 1014.9 |
| 20260507042551 | 47 | 14 | 0.0 | 0.0 | 0.00 | 0.00 | 0.00 | 79 | 1014.7 |
| 20260507042047 | 47 | 14 | 0.0 | 0.0 | 0.00 | 0.00 | 0.00 | 79 | 1014.8 |
| 20260507041544 | 47 | 14 | 0.0 | 0.0 | 0.00 | 0.00 | 0.00 | 80 | 1014.9 |
| 20260507041040 | 47 | 14 | 0.0 | 0.0 | 0.00 | 0.00 | 0.00 | 81 | 1014.6 |
| 20260507040537 | 47 | 14 | 0.0 | 0.0 | 0.00 | 0.00 | 0.00 | 81 | 1014.8 |
| 20260507040033 | 47 | 15 | 0.9 | 0.9 | 0.00 | 0.66 | 0.66 | 80 | 1014.4 |
| 20260507035529 | 47 | 14 | 0.0 | 0.0 | 0.00 | 0.66 | 0.66 | 79 | 1014.6 |
| 20260507035026 | 47 | 14 | 0.0 | 0.0 | 0.00 | 0.66 | 0.66 | 79 | 1014.7 |
| 20260507034522 | 47 | 14 | 0.0 | 0.0 | 0.00 | 0.66 | 0.66 | 79 | 1014.6 |
| 20260507034020 | 47 | 14 | 0.0 | 0.0 | 0.00 | 0.66 | 0.66 | 80 | 1014.6 |
| 20260507033518 | 47 | 14 | 0.0 | 0.0 | 0.00 | 0.66 | 0.66 | 80 | 1014.4 |
| 20260507033016 | 48 | 14 | 0.0 | 0.0 | 0.00 | 0.66 | 0.66 | 79 | 1014.6 |
| 20260507032512 | 48 | 14 | 0.0 | 0.9 | 0.00 | 0.66 | 0.66 | 79 | 1014.4 |
| 20260507032008 | 48 | 14 | 0.0 | 0.9 | 0.00 | 0.66 | 0.66 | 78 | 1014.5 |
| 20260507031504 | 48 | 14 | 0.9 | 0.9 | 0.00 | 0.66 | 0.66 | 77 | 1014.2 |
| 20260507031002 | 48 | 14 | 0.0 | 0.0 | 0.00 | 0.66 | 0.66 | 74 | 1014.2 |
| 20260507030459 | 48 | 14 | 0.0 | 0.0 | 0.00 | 0.66 | 0.66 | 76 | 1014.5 |
| 20260507025955 | 48 | 14 | 0.0 | 0.0 | 0.00 | 0.66 | 0.66 | 76 | 1014.4 |
| 20260507025453 | 49 | 14 | 0.0 | 0.0 | 0.00 | 0.66 | 0.66 | 75 | 1014.2 |
| 20260507024951 | 49 | 14 | 0.0 | 0.0 | 0.00 | 0.66 | 0.66 | 73 | 1014.2 |
| 20260507024448 | 49 | 14 | 0.0 | 0.0 | 0.00 | 0.66 | 0.66 | 72 | 1014.2 |
| 20260507023943 | 49 | 14 | 0.0 | 0.0 | 0.00 | 0.66 | 0.66 | 67 | 1014.2 |
| 20260507023441 | 50 | 15 | 0.0 | 0.0 | 0.00 | 0.66 | 0.66 | 65 | 1014.1 |
| 20260507022938 | 50 | 15 | 0.9 | 0.9 | 0.00 | 0.66 | 0.66 | 65 | 1013.9 |
| 20260507022436 | 49 | 1 | 0.0 | 0.0 | 0.00 | 0.66 | 0.66 | 65 | 1014.2 |
| 20260507021930 | 50 | 1 | 0.0 | 0.0 | 0.00 | 0.66 | 0.66 | 65 | 1014.1 |
| 20260507021425 | 50 | 5 | 0.0 | 0.0 | 0.00 | 0.66 | 0.66 | 65 | 1013.9 |
| 20260507020924 | 50 | 4 | 0.9 | 0.9 | 0.00 | 0.66 | 0.66 | 64 | 1014.0 |
| 20260507020420 | 50 | 2 | 0.0 | 0.9 | 0.00 | 0.66 | 0.66 | 63 | 1013.7 |
| 20260507015917 | 50 | 359 | 0.9 | 0.9 | 0.00 | 0.66 | 0.66 | 63 | 1013.9 |
| 20260507015415 | 50 | 358 | 0.9 | 0.9 | 0.00 | 0.66 | 0.66 | 62 | 1013.7 |
| 20260507014912 | 50 | 14 | 0.9 | 0.9 | 0.00 | 0.66 | 0.66 | 63 | 1013.4 |
| 20260507014408 | 50 | 2 | 0.0 | 0.9 | 0.00 | 0.66 | 0.66 | 63 | 1013.6 |
| 20260507013904 | 50 | 12 | 0.9 | 1.7 | 0.00 | 0.66 | 0.66 | 62 | 1013.6 |
| 20260507013357 | 50 | 7 | 0.9 | 0.9 | 0.00 | 0.66 | 0.66 | 62 | 1013.1 |
| 20260507012854 | 51 | 19 | 1.7 | 2.6 | 0.00 | 0.66 | 0.66 | 61 | 1013.5 |
| 20260507012349 | 51 | 14 | 0.0 | 0.0 | 0.00 | 0.66 | 0.66 | 61 | 1013.4 |
| 20260507011847 | 51 | 3 | 0.0 | 0.9 | 0.00 | 0.66 | 0.66 | 61 | 1013.5 |
| 20260507011344 | 51 | 19 | 0.9 | 1.7 | 0.00 | 0.66 | 0.66 | 61 | 1013.3 |
| 20260507010838 | 51 | 11 | 0.9 | 1.7 | 0.00 | 0.66 | 0.66 | 60 | 1013.5 |
| 20260507010334 | 51 | 28 | 2.6 | 2.6 | 0.00 | 0.66 | 0.66 | 61 | 1014.0 |
| 20260507005831 | 51 | 49 | 2.6 | 5.2 | 0.00 | 0.66 | 0.66 | 62 | 1013.9 |
| 20260507005328 | 51 | 15 | 0.0 | 0.0 | 0.00 | 0.66 | 0.66 | 62 | 1014.0 |
| 20260507004825 | 51 | 6 | 0.9 | 0.9 | 0.00 | 0.66 | 0.66 | 63 | 1014.1 |
| 20260507004322 | 51 | 11 | 0.0 | 0.9 | 0.00 | 0.66 | 0.66 | 64 | 1014.0 |
| 20260507003819 | 51 | 350 | 0.9 | 0.9 | 0.00 | 0.66 | 0.66 | 64 | 1013.7 |
| 20260507003314 | 52 | 348 | 0.0 | 0.9 | 0.00 | 0.66 | 0.66 | 64 | 1013.8 |
| 20260507002809 | 52 | 18 | 0.9 | 0.9 | 0.00 | 0.66 | 0.66 | 63 | 1013.8 |
| 20260507002306 | 52 | 18 | 0.9 | 1.7 | 0.00 | 0.66 | 0.66 | 63 | 1013.7 |
| 20260507001803 | 52 | 33 | 0.9 | 1.7 | 0.00 | 0.66 | 0.66 | 64 | 1013.6 |
| 20260507001300 | 52 | 6 | 1.7 | 1.7 | 0.00 | 0.66 | 0.66 | 62 | 1013.7 |
| 20260507000756 | 52 | 350 | 0.0 | 0.9 | 0.00 | 0.66 | 0.66 | 61 | 1013.6 |
| 20260507000252 | 52 | 339 | 3.5 | 4.3 | 0.00 | 0.66 | 0.66 | 61 | 1013.7 |
| 20260506235748 | 53 | 35 | 4.3 | 6.1 | 0.00 | 0.66 | 0.66 | 60 | 1013.8 |
| 20260506235244 | 53 | 12 | 0.9 | 2.6 | 0.00 | 0.66 | 0.66 | 62 | 1013.7 |
| 20260506234741 | 53 | 355 | 2.6 | 4.3 | 0.00 | 0.66 | 0.66 | 62 | 1013.5 |
| 20260506234238 | 53 | 11 | 3.5 | 5.2 | 0.00 | 0.66 | 0.66 | 64 | 1013.2 |
| 20260506233736 | 53 | 11 | 0.9 | 1.7 | 0.00 | 0.66 | 0.66 | 65 | 1013.5 |
| 20260506233232 | 53 | 354 | 2.6 | 2.6 | 0.00 | 0.66 | 0.66 | 65 | 1013.1 |
| 20260506232724 | 54 | 3 | 0.9 | 0.9 | 0.00 | 0.66 | 0.66 | 66 | 1012.9 |
| 20260506232224 | 54 | 9 | 0.9 | 1.7 | 0.00 | 0.66 | 0.66 | 68 | 1012.8 |
| 20260506231721 | 54 | 341 | 0.9 | 0.9 | 0.00 | 0.66 | 0.66 | 66 | 1012.9 |